Tracking 30009 objects as of 7-Dec-2024
HD Live streaming from Space Station
objects crossing your sky now

STARLINK-32075

Track STARLINK-32075 now!
10-day predictions
STARLINK-32075 is classified as:


NORAD ID: 60345
Int'l Code: 2024-136S
Perigee: 481.5 km
Apogee: 483.3 km
Inclination: 53.2 °
Period: 94.1 minutes
Semi major axis: 6853 km
RCS: Unknown
Launch date: August 2, 2024
Source: United States (US)
Launch site: AIR FORCE EASTERN TEST RANGE (AFETR)
Your satellite tracking list
Your tracking list is empty




NASA's NSSDC Master Catalog

Two Line Element Set (TLE):
1 60345U 24136S   24342.46515194 -.00000131  00000-0  77003-5 0  9992
2 60345  53.1632  39.2699 0001281  89.8090 270.3057 15.30186663 20829
Source of the keplerian elements: AFSPC